Regional Weather Roundup
Issued by NWS

Home | Current Version | Previous Version | Graphics & Text | Print | Product List | Glossary On
Versions: 1 2 3 4 5 6 7 8 9 10 11 12 13 14 15 16 17 18 19 20 21 22 23 24 25 26 27 28 29 30 31 32 33 34 35 36 37 38 39 40 41 42 43 44 45 46 47 48 49 50
000
ASUS45 KCYS 310810
RWRWY

WYOMING REGIONAL WEATHER ROUNDUP
NATIONAL WEATHER SERVICE CHEYENNE WY
200 AM MDT MON AUG 31 2015

NOTE:  "FAIR" INDICATES FEW OR NO CLOUDS BELOW 12,000 FEET
WITH NO SIGNIFICANT WEATHER AND/OR OBSTRUCTIONS TO VISIBILITY.

WYZ001-310900-
YELLOWSTONE NATIONAL PARK

CITY           SKY/WX    TMP DP  RH WIND       PRES   REMARKS
LK YELLOWSTONE   N/A     38  27  64 CALM      30.20F
W YELLOWSTONE  NOT AVBL

$$
WYZ002>013-054>058-071-098>099-310900-
NORTHERN WYOMING

CITY           SKY/WX    TMP DP  RH WIND       PRES   REMARKS
JACKSON        FAIR      50  28  43 N3        30.16R
CODY           FAIR      64  28  25 NW8       29.99R
GREYBULL       FAIR      73  33  23 NW9       29.88R
WORLAND        FAIR      61  46  57 MISG      29.90R
SHERIDAN       FAIR      63  48  58 NW28G39   29.91R
BUFFALO        FAIR      70  40  33 W10       29.93R
GILLETTE       FAIR      67  47  48 W10       29.86R
HULETT         FAIR      73  45  35 SW10      29.86S
NEWCASTLE      FAIR      70  41  35 CALM      29.88S

$$
WYZ014>020-022>026-101>103-310900-
CENTRAL WYOMING

CITY           SKY/WX    TMP DP  RH WIND       PRES   REMARKS
BIG PINEY      FAIR      54  34  46 VRB5      30.20R
PINEDALE       FAIR      48  37  66 CALM      30.20S
DUBOIS         FAIR      54  32  43 NW12      30.14S
LANDER         FAIR      69  43  38 SW17      30.01R
RIVERTON       FAIR      67  45  45 SW10      30.02R
CASPER         FAIR      71  44  37 SW17G26   30.00R
DOUGLAS        FAIR      77  43  29 W14G23    29.94F

$$
WYZ021-027>030-104>119-310900-
SOUTHERN WYOMING

CITY           SKY/WX    TMP DP  RH WIND       PRES   REMARKS
EVANSTON       FAIR      56  38  50 N6        30.21R
KEMMERER       FAIR      52  36  54 N9        30.21R
FORT BRIDGER   SUNNY     52  50  93 W6        30.22R
ROCK SPRINGS   FAIR      56  49  77 S9        30.16S
DIXON          PTSUNNY   61  49  64 W7        30.24R
RAWLINS        FAIR      57  50  77 SW14      30.19S
SARATOGA       CLOUDY    63  46  55 W14       30.24R
LARAMIE        FAIR      62  45  53 SW7       30.19R
CHEYENNE       MOCLDY    72  44  36 W9        30.06S
TORRINGTON     LGT RAIN  69  53  56 S6        29.92R
PINE BLUFFS    FAIR      61  46  59 SW7       30.01S

$$


USA.gov is the U.S. government's official web portal to all federal, state and local government web resources and services.